Home > Weather > Harare > Past weeks

Flag for Zimbabwe Weather for the Past 2 Weeks in Harare, Zimbabwe

Now
77 °F

Passing clouds.


Feels Like: 79 °F
Forecast: 65 / 84 °F
Wind: 8 mph from Northeast

Location: Harare Kutsaga Airport

Current Time: Feb 11, 2016 at 7:27:16 PM

Latest Report: Feb 11, 2016 at 7:00 PM


Visibility: N/A

Pressure: 30.04 "Hg (25.32 "Hg at 1490m altitude)

Humidity: 57%

Dew point: 61 °F

Location of HarareLocation

Historic Weather in Harare — Graph

°F

Harare Temperature Yesterday

Maximum temperature yesterday: 84 °F (at 3:00 PM)
Minimum temperature yesterday: 59 °F (at 4:00 AM)
Average temperature yesterday: 72 °F

High & Low Weather Summary for the Past Weeks

 TemperatureHumidityPressure
High91 °F (Feb 7, 1:00 PM)100% (Jan 27, 6:00 PM)30.24 "Hg (Jan 27, 6:00 PM)
Low57 °F (Feb 2, 5:00 AM)30% (Feb 10, 5:00 PM)30.01 "Hg (Feb 4, 5:00 PM)
Average72 °F72%30.14 "Hg
* Reported Jan 27 6:00 PM — Feb 11 6:00 PM, Harare, Weather by CustomWeather, © 2016

Note: Actual official high and low records may vary slightly from our data, if they occured in-between our weather recording intervals... More about our weather records

Advertising

Harare Weather History for the Previous 24 Hours

 ConditionsComfort  
Time TempWeatherWind HumidityBarometerVisibility
6:00 PM
Thu, Feb 11
82 °FScattered clouds.No wind45%30.04 "HgN/A
5:00 PM82 °FPassing clouds.3 mph40%30.04 "HgN/A
4:00 PM82 °FScattered clouds.3 mph42%30.04 "HgN/A
3:00 PM82 °FScattered clouds.6 mph42%30.07 "HgN/A
2:00 PM82 °FScattered clouds.7 mph45%30.09 "HgN/A
1:00 PM82 °FScattered clouds.3 mph48%30.09 "HgN/A
12:00 PM81 °FScattered clouds.8 mph48%30.12 "HgN/A
11:00 AM79 °FPartly sunny.8 mph51%30.15 "HgN/A
10:00 AM79 °FScattered clouds.8 mph58%30.15 "HgN/A
9:00 AM75 °FPassing clouds.9 mph61%30.18 "HgN/A
8:00 AM72 °FPassing clouds.12 mph65%30.15 "HgN/A
7:00 AM68 °FPassing clouds.8 mph73%30.15 "HgN/A
6:00 AM63 °FSunny.7 mph88%30.12 "Hg10 mi
5:00 AM63 °FClear.6 mph88%30.12 "Hg10 mi
4:00 AM64 °FClear.8 mph78%30.12 "Hg10 mi
3:00 AM64 °FClear.8 mph83%30.09 "Hg10 mi
1:00 AM63 °FClear.7 mph73%30.12 "Hg10 mi
12:00 AM64 °FClear.7 mph64%30.12 "Hg10 mi
11:00 PM
Wed, Feb 10
66 °FClear.7 mph56%30.12 "Hg10 mi
10:00 PM68 °FClear.8 mph53%30.12 "Hg10 mi
9:00 PM68 °FClear.8 mph53%30.09 "Hg10 mi
8:00 PM70 °FClear.7 mph46%30.09 "Hg10 mi
7:00 PM73 °FClear.6 mph41%30.07 "Hg10 mi
Weather by CustomWeather, © 2016

See weather overviewHow to use our weather pages